Regional Weather Roundup
Issued by NWS Cleveland, OH

Home | Current Version | Previous Version | Graphics & Text | Print | Product List | Glossary On
Versions: 1 2 3 4 5 6 7 8 9 10 11 12 13 14 15 16 17 18 19 20 21 22 23 24 25 26 27 28 29 30 31 32 33 34 35 36 37 38 39 40 41 42 43 44 45 46 47 48 49 50
000
ASUS41 KCLE 142002
RWRCLE
OHIO REGIONAL WEATHER ROUNDUP
NATIONAL WEATHER SERVICE CLEVELAND, OH
400 PM EDT SUN SEP 14 2014

NOTE: "FAIR" INDICATES FEW OR NO CLOUDS BELOW 12,000 FEET WITH NO
SIGNIFICANT WEATHER AND/OR OBSTRUCTIONS TO VISIBILITY.

OHZ001>008-015>018-024>027-034-035-043-044-142100-
   NORTHWEST OHIO

CITY           SKY/WX    TMP DP  RH WIND       PRES   REMARKS
DEFIANCE       PTSUNNY   63  43  48 VRB3      30.24F
FINDLAY        SUNNY     65  43  44 S9        30.23F
TOLEDO EXPRESS MOSUNNY   63  40  42 CALM      30.24F
TOLEDO EXEC    MOSUNNY   64  42  44 VRB6      30.25F
LIMA           SUNNY     66  45  46 VRB3      30.24F
$$

OHZ009>014-019>023-028>033-038-089-142100-
   NORTHEAST OHIO

CITY           SKY/WX    TMP DP  RH WIND       PRES   REMARKS
CLE-HOPKINS    CLOUDY    63  48  58 N9        30.26F
CLE-LAKEFRONT  PTSUNNY   63  47  55 NW7       30.24F
CUY CO. ARPT   PTSUNNY   63  50  63 N9        30.25F
LORAIN-ELYRIA  PTSUNNY   65  44  46 SE3       30.25F
ASHTABULA      PTSUNNY   61  43  51 CALM      30.25F
AKRON-CANTON   MOSUNNY   62  42  47 VRB3      30.24F
WOOSTER        MOSUNNY   64  44  48 CALM      30.25F
MANSFIELD      MOSUNNY   65  43  44 VRB6      30.24F
YOUNGSTOWN     PTSUNNY   63  42  46 CALM      30.24F
$$

OHZ042-051>053-060>062-070>072-077>081-142100-
  SOUTHWEST OHIO

CITY           SKY/WX    TMP DP  RH WIND       PRES   REMARKS
CINC-COVINGTON MOSUNNY   69  46  43 SW3       30.23F
CINC-LUNKEN    SUNNY     69  48  47 S6        30.23F
HAMILTON       SUNNY     69  47  45 CALM      30.23F
DAYTON         MOSUNNY   67  46  47 S7        30.24F
WRIGHT-PAT AFB NOT AVBL
DAYTON GENERAL SUNNY     66  47  50 VRB5      30.23F
WILMINGTON     SUNNY     69  47  45 SW5       30.23F
$$

OHZ036-037-039>041-045>050-054>059-063>069-073>076-082>088-142100-
  CENTRAL AND SOUTHEAST OHIO

CITY           SKY/WX    TMP DP  RH WIND       PRES   REMARKS
COLUMBUS       MOSUNNY   68  41  37 CALM      30.23F
OSU AIRPORT    MOSUNNY   65  45  48 SE6       30.23F
BOLTON FIELD   SUNNY     64  46  52 SW6       30.25F
RICKENBACK AFB SUNNY     65  43  45 CALM      30.23F
NEWARK         SUNNY     65  44  46 CALM      30.24F
MARION         SUNNY     65  42  43 S3        30.24F
LANCASTER      SUNNY     68  45  43 VRB7      30.24F
ZANESVILLE     SUNNY     65  44  46 VRB5      30.24F
NEW PHILLY     MOSUNNY   63  45  51 CALM      30.25F
$$



USA.gov is the U.S. government's official web portal to all federal, state and local government web resources and services.